Moorhead, MN

3:48 PM CDT on June 24, 2017 (GMT -0500)
Moorhead Municipal

Weather History for KJKJ - January, 2014

Change the Weather History Date:

Wednesday, January 8, 2014

  Actual Average (KFAR) Record (KFAR)
Temperature  
Mean Temperature -10 °F -  
Max Temperature 1 °F 13 °F 50 °F (1900)
Min Temperature -22 °F -5 °F -48 °F (1887)
Degree Days  
Heating Degree Days 76    
Moisture  
Dew Point -15 °F    
Average Humidity 83    
Maximum Humidity 92    
Minimum Humidity 76    
Precipitation  
Precipitation 0.00 in - - ()
Sea Level Pressure  
Sea Level Pressure 30.36 in    
Wind  
Wind Speed 3 mph (SSE)    
Max Wind Speed 20 mph    
Max Gust Speed 25 mph    
Visibility 10 miles    
Events      
Averages and records for this station are not official NWS values.
T = Trace of Precipitation, MM = Missing Value Source: NWS Daily Summary

Daily Weather History Graph

Daily Weather History Graph

Search for Another Location

Airport or City:

Trip Planner

Search our weather history database for the weather conditions in past years. The results will help you decide how hot, cold, wet, or windy it might be!

Date:

Astronomy

Jan. 08, 2014 Rise Set
Actual Time 8:10 AM CST 4:56 PM CST
Civil Twilight 7:36 AM CST 5:31 PM CST
Nautical Twilight 6:57 AM CST 6:09 PM CST
Astronomical Twilight 6:21 AM CST 6:45 PM CST
Moon 12:01 PM CST (1/8) 1:03 AM CST (1/8)
Length of Visible Light 9h 55m
Length of Day
8h 45m
First Quarter, 56% of the Moon is Illuminated
Jan 8
First Quarter
Jan 15
Full
Jan 23
Last Quarter
Jan 30
New
Feb 6
First Quarter

Hourly Weather History & Observations

Time (CST) Temp. Windchill Dew Point Humidity Pressure Visibility Wind Dir Wind Speed Gust Speed Precip Events Conditions
12:15 AM -9.4 °F - -13.0 °F 84% 30.29 in 10.0 mi Calm Calm - N/A   Clear
12:35 AM -9.4 °F - -13.0 °F 84% 30.29 in 10.0 mi Calm Calm - N/A   Clear
12:54 AM -11.2 °F - -14.8 °F 84% 30.30 in 10.0 mi Calm Calm - N/A   Clear
1:14 AM -14.8 °F - -16.6 °F 92% 30.30 in 10.0 mi Calm Calm - N/A   Clear
1:34 AM -11.2 °F - -14.8 °F 84% 30.30 in 10.0 mi Calm Calm - N/A   Clear
1:55 AM -11.2 °F - -14.8 °F 84% 30.31 in 10.0 mi Calm Calm - N/A   Clear
2:15 AM -11.2 °F - -14.8 °F 84% 30.32 in 10.0 mi Calm Calm - N/A   Clear
2:34 AM -13.0 °F - -16.6 °F 84% 30.33 in 10.0 mi Calm Calm - N/A   Clear
2:54 AM -13.0 °F - -16.6 °F 84% 30.34 in 10.0 mi Calm Calm - N/A   Clear
3:15 AM -14.8 °F - -16.6 °F 92% 30.34 in 10.0 mi Calm Calm - N/A   Clear
3:34 AM -13.0 °F - -16.6 °F 84% 30.34 in 10.0 mi Calm Calm - N/A   Clear
3:55 AM -16.6 °F - -20.2 °F 84% 30.34 in 10.0 mi Calm Calm - N/A   Clear
4:15 AM -14.8 °F - -18.4 °F 84% 30.34 in 10.0 mi Calm Calm - N/A   Clear
4:34 AM -14.8 °F - -18.4 °F 84% 30.34 in 10.0 mi Calm Calm - N/A   Clear
4:55 AM -14.8 °F - -18.4 °F 84% 30.35 in 10.0 mi Calm Calm - N/A   Clear
5:15 AM -16.6 °F - -20.2 °F 84% 30.35 in 10.0 mi Calm Calm - N/A   Clear
5:35 AM -14.8 °F - -18.4 °F 84% 30.35 in 10.0 mi Calm Calm - N/A   Clear
5:55 AM -16.6 °F - -20.2 °F 84% 30.36 in 10.0 mi Calm Calm - N/A   Clear
6:14 AM -16.6 °F - -20.2 °F 84% 30.37 in 10.0 mi Calm Calm - N/A   Clear
6:35 AM -18.4 °F - -22.0 °F 84% 30.37 in 10.0 mi Calm Calm - N/A   Clear
6:55 AM -18.4 °F -28.9 °F -23.8 °F 76% 30.37 in 10.0 mi WSW 3.5 mph - N/A   Clear
7:14 AM -18.4 °F - -23.8 °F 76% 30.37 in 10.0 mi Calm Calm - N/A   Clear
7:35 AM -22.0 °F - -25.6 °F 83% 30.38 in 7.0 mi Calm Calm - N/A   Clear
7:55 AM -20.2 °F - -25.6 °F 76% 30.38 in 10.0 mi Calm Calm - N/A   Clear
8:14 AM -20.2 °F - -23.8 °F 83% 30.39 in 10.0 mi Calm Calm - N/A   Clear
8:35 AM -20.2 °F - -25.6 °F 76% 30.41 in 10.0 mi Calm Calm - N/A   Clear
8:55 AM -20.2 °F - -23.8 °F 83% 30.42 in 10.0 mi Calm Calm - N/A   Clear
9:14 AM -18.4 °F - -23.8 °F 76% 30.42 in 10.0 mi Calm Calm - N/A   Clear
9:35 AM -20.2 °F - -25.6 °F 76% 30.42 in 10.0 mi Calm Calm - N/A   Clear
9:55 AM -16.6 °F - -20.2 °F 84% 30.43 in 7.0 mi Calm Calm - N/A   Clear
10:14 AM -16.6 °F - -20.2 °F 84% 30.44 in 10.0 mi Calm Calm - N/A   Clear
10:35 AM -14.8 °F - -18.4 °F 84% 30.44 in 10.0 mi Calm Calm - N/A   Clear
10:54 AM -14.8 °F - -18.4 °F 84% 30.44 in 10.0 mi Calm Calm - N/A   Clear
11:15 AM -14.8 °F -27.2 °F -18.4 °F 84% 30.45 in 10.0 mi South 4.6 mph - N/A   Clear
11:35 AM -14.8 °F - -18.4 °F 84% 30.44 in 10.0 mi Calm Calm - N/A   Clear
11:54 AM -11.2 °F - -14.8 °F 84% 30.44 in 10.0 mi Calm Calm - N/A   Clear
12:15 PM -11.2 °F -20.6 °F -14.8 °F 84% 30.43 in 10.0 mi South 3.5 mph - N/A   Clear
12:35 PM -9.4 °F - -14.8 °F 77% 30.43 in 10.0 mi Calm Calm - N/A   Clear
12:54 PM -9.4 °F -22.7 °F -13.0 °F 84% 30.42 in 10.0 mi South 5.8 mph - N/A   Clear
1:15 PM -9.4 °F -20.9 °F -13.0 °F 84% 30.42 in 10.0 mi South 4.6 mph - N/A   Clear
1:35 PM -9.4 °F -18.6 °F -11.2 °F 92% 30.41 in 10.0 mi South 3.5 mph - N/A   Clear
1:54 PM -9.4 °F -20.9 °F -11.2 °F 92% 30.41 in 10.0 mi South 4.6 mph - N/A   Clear
2:15 PM -7.6 °F -23.4 °F -11.2 °F 84% 30.41 in 10.0 mi SSW 8.1 mph - N/A   Clear
2:34 PM -7.6 °F -18.8 °F -11.2 °F 84% 30.41 in 10.0 mi South 4.6 mph - N/A   Clear
2:55 PM -7.6 °F -18.8 °F -11.2 °F 84% 30.41 in 10.0 mi South 4.6 mph - N/A   Clear
3:15 PM -7.6 °F -20.6 °F -11.2 °F 84% 30.41 in 10.0 mi SSW 5.8 mph - N/A   Clear
3:34 PM -7.6 °F -20.6 °F -11.2 °F 84% 30.40 in 10.0 mi South 5.8 mph - N/A   Clear
3:55 PM -7.6 °F -20.6 °F -11.2 °F 84% 30.40 in 10.0 mi South 5.8 mph - N/A   Clear
4:15 PM -7.6 °F -20.6 °F -11.2 °F 84% 30.40 in 10.0 mi South 5.8 mph - N/A   Clear
4:34 PM -7.6 °F -22.1 °F -11.2 °F 84% 30.39 in 10.0 mi South 6.9 mph - N/A   Clear
4:55 PM -9.4 °F -24.3 °F -13.0 °F 84% 30.38 in 10.0 mi SSE 6.9 mph - N/A   Clear
5:15 PM -9.4 °F -22.7 °F -14.8 °F 77% 30.38 in 10.0 mi SSE 5.8 mph - N/A   Clear
5:35 PM -11.2 °F -24.8 °F -14.8 °F 84% 30.37 in 10.0 mi SE 5.8 mph - N/A   Clear
5:55 PM -9.4 °F -24.3 °F -14.8 °F 77% 30.36 in 10.0 mi SSE 6.9 mph - N/A   Clear
6:14 PM -9.4 °F -24.3 °F -14.8 °F 77% 30.35 in 10.0 mi SE 6.9 mph - N/A   Clear
6:35 PM -11.2 °F -24.8 °F -14.8 °F 84% 30.35 in 10.0 mi SE 5.8 mph - N/A   Clear
6:54 PM -11.2 °F -26.4 °F -14.8 °F 84% 30.34 in 10.0 mi SSE 6.9 mph - N/A   Clear
7:15 PM -11.2 °F -26.4 °F -14.8 °F 84% 30.34 in 10.0 mi SSE 6.9 mph - N/A   Clear
7:35 PM -11.2 °F -26.4 °F -14.8 °F 84% 30.34 in 10.0 mi South 6.9 mph - N/A   Clear
7:54 PM -9.4 °F -26.8 °F -13.0 °F 84% 30.32 in 10.0 mi SSE 9.2 mph - N/A   Clear
8:15 PM -7.6 °F -28.3 °F -11.2 °F 84% 30.31 in 10.0 mi SSE 13.8 mph - N/A   Mostly Cloudy
8:34 PM -5.8 °F -26.0 °F -9.4 °F 84% 30.31 in 10.0 mi SSE 13.8 mph - N/A   Overcast
8:55 PM -5.8 °F -27.5 °F -9.4 °F 84% 30.30 in 10.0 mi SSE 16.1 mph - N/A   Overcast
9:15 PM -2.2 °F -23.5 °F -7.6 °F 78% 30.28 in 10.0 mi SSE 17.3 mph - N/A   Overcast
9:34 PM -2.2 °F -22.9 °F -5.8 °F 85% 30.27 in 10.0 mi SSE 16.1 mph - N/A   Overcast
9:55 PM -0.4 °F -21.2 °F -5.8 °F 78% 30.27 in 10.0 mi South 17.3 mph - N/A   Overcast
10:15 PM -0.4 °F -20.5 °F -5.8 °F 78% 30.26 in 10.0 mi SSE 16.1 mph - N/A   Overcast
10:34 PM -0.4 °F -21.7 °F -4.0 °F 85% 30.24 in 10.0 mi South 18.4 mph - N/A   Overcast
10:55 PM 1.4 °F -19.9 °F -4.0 °F 78% 30.23 in 10.0 mi SSE 19.6 mph 24.2 mph N/A   Overcast
11:15 PM 1.4 °F -19.9 °F -2.2 °F 85% 30.22 in 10.0 mi SSE 19.6 mph 23.0 mph N/A   Overcast
11:35 PM 1.4 °F -19.9 °F -2.2 °F 85% 30.20 in 7.0 mi SSE 19.6 mph 25.3 mph N/A   Overcast
11:55 PM 1.4 °F -19.4 °F -2.2 °F 85% 30.19 in 10.0 mi SSE 18.4 mph - N/A   Overcast